User: anonymous   Login
Location: Unspecified
(0.0000°N, 0.0000°E)
Time: 06:10:53
(UTC+02:00)
Language:

Cosmos 1933 - Orbit

View from above orbital plane
View from above orbital plane
View from above satellite
View from above satellite

Ground track
Ground track

The orbit data is extracted from the following two-line orbital elements,

1 18958U 88020A   16177.85029839  .00000184  00000-0  11549-4 0  9992
2 18958  82.5309  87.6112 0013136  58.6572 301.5937 15.02938896538007
Epoch (UTC): 25 June 2016 20:24:25
Eccentricity: 0.0013136
inclination: 82.5309°
perigee height: 549 km
apogee height: 567 km
right ascension of ascending node: 87.6112°
argument of perigee: 58.6572°
revolutions per day: 15.02938896
mean anomaly at epoch: 301.5937°
orbit number at epoch: 53800

The dashed part of the orbit path shows where the satellite is in the earth's shadow,  

DLR